Location: ?????????
(55.6087°N, 39.1847°E)
Time: 18:39:40
(UTC+00:00)

Daily predictions for brighter satellites

Satellite Brightness Start Highest point End
(mag) Time Altitude Azimuth Time Altitude Azimuth Time Altitude Azimuth
Cosmos 2221 Rocket 3.8 13:45:39 10° NNW 13:50:10 80° W 13:54:37 10° S
Meteor 1-28 Rocket 3.6 13:54:50 10° NNE 13:57:57 34° E 14:01:03 10° SSE
CORIOLIS 4.2 13:54:35 10° SE 13:59:49 57° ENE 14:05:04 10° N
Cosmos 1867 3.8 13:54:38 10° WSW 14:00:05 70° NW 14:05:34 10° NE
ATLAS 2AS CENTAUR R/B 3.2 13:53:41 10° WNW 14:00:16 45° N 14:06:43 10° E
IRS-1C 4.3 13:56:46 10° SE 14:01:53 49° ENE 14:07:00 10° N
SJ-12 4.4 13:59:06 10° SE 14:02:32 34° ENE 14:05:59 10° N
ASTEX 1 4.3 13:58:12 10° N 14:02:55 51° WNW 14:07:37 10° SSW
Cosmos 2233 Rocket 4.2 13:58:58 10° SSE 14:05:01 51° E 14:11:07 10° NNE
Cosmos 2344 3.8 13:59:13 10° WNW 14:06:28 57° NNE 14:15:22 10° E
Cosmos 1725 Rocket 4.0 14:00:49 10° S 14:07:03 71° E 14:13:21 10° NNE
Cosmos 1943 Rocket 3.4 14:03:24 10° SSE 14:07:42 23° ESE 14:11:59 10° NE
Cosmos 2227 Rocket 4.0 14:05:39 10° WNW 14:09:46 20° NNW 14:13:54 10° NNE
Cosmos 841 Rocket 4.3 14:05:48 10° NNW 14:10:27 30° NE 14:15:04 10° ESE
Thor Agena Rocket 3.6 14:05:10 10° SSE 14:10:27 82° ENE 14:15:45 10° NNW
NOSS 3-3 (C) 4.3 14:05:25 10° WSW 14:11:02 59° NNW 14:17:57 10° NE
Cosmos 2082 Rocket 2.3 14:06:26 10° NNW 14:11:57 53° NE 14:17:26 10° SE
Cosmos 2061 Rocket 4.2 14:05:57 10° SSE 14:11:58 51° E 14:17:58 10° NNE
Cosmos 2173 Rocket 4.2 14:08:04 10° SSW 14:14:14 76° WNW 14:20:23 10° N
Resurs 01 Rocket 3.4 14:15:21 11° ENE 14:16:32 12° NE 14:18:19 10° NNE
JB-3 4.3 14:13:50 10° NNE 14:17:42 81° WNW 14:21:30 10° SSW
Cosmos 1782 Rocket 3.7 14:13:47 10° S 14:18:06 55° E 14:22:26 10° NNE
ATLAS CENTAUR R/B 1.5 14:16:08 10° WSW 14:19:30 51° NW 14:22:41 11° NE
Cosmos 2278 Rocket 3.2 14:15:46 10° SSE 14:20:25 27° ESE 14:24:52 11° NE
Cosmos 1300 Rocket 3.5 14:16:25 10° S 14:20:46 64° E 14:25:05 10° NNE
Cosmos 2058 3.6 14:17:19 10° N 14:20:52 30° ENE 14:24:23 10° SE
USA 215 3.9 14:17:29 10° SE 14:23:56 59° SSW 14:30:26 10° WNW
Cosmos 921 Rocket 3.3 14:19:52 10° SSW 14:24:15 74° WNW 14:28:44 10° NNE
Cosmos 468 Rocket 4.1 14:19:53 10° NNW 14:25:03 56° NE 14:30:08 10° SE
SL-08 R/B 4.4 14:21:30 10° S 14:27:35 78° E 14:33:41 10° NNE
Cosmos 1346 Rocket 4.2 14:26:51 10° NNE 14:29:14 16° ENE 14:29:44 16° ENE
MOS 1 Rocket 3.5 14:25:33 10° SE 14:29:41 42° ENE 14:34:02 10° N
GEOS 3 Rocket 4.5 14:25:58 10° NE 14:30:54 43° NNW 14:35:56 10° W
Cosmos 1975 Rocket 3.0 14:27:21 10° NNW 14:31:44 88° E 14:36:06 10° S
ARIANE 5 R/B 2.4 14:27:18 10° SSE 14:32:16 77° ENE 14:37:19 10° NNW
Cosmos 1908 Rocket 4.0 14:27:52 10° SSW 14:32:16 65° WNW 14:36:44 10° N
ATLAS 5 CENTAUR R/B 3.9 14:28:53 10° WNW 14:32:37 29° SW 14:37:04 10° S
Cosmos 1802 Rocket 4.3 14:28:53 10° SSW 14:35:18 75° WNW 14:41:45 10° N
AQUARIUS 4.1 14:31:43 10° SSE 14:36:03 60° ENE 14:40:25 10° N
Cosmos 2263 Rocket 4.0 14:31:59 10° WNW 14:36:05 20° NNW 14:40:13 10° NNE
SAR-Lupe-1 3.9 14:33:51 10° SSE 14:37:25 78° ENE 14:41:02 10° NNW
Cosmos 1844 Rocket 3.8 14:32:21 10° WSW 14:37:32 37° NW 14:42:45 10° NNE
Cosmos 1602 3.6 14:35:54 10° N 14:38:48 37° ENE 14:41:41 10° SE
CZ-2D R/B 4.0 14:37:46 10° SE 14:41:38 38° ENE 14:45:33 10° N
Iridium 4 Rocket 4.2 14:37:16 10° SSW 14:42:02 51° W 14:46:27 10° N
USA 281 4.0 14:37:43 13° E 14:42:41 32° NE 14:48:21 10° NNW
ARIANE 6 FM1 Upper Stage 3.5 14:41:40 10° W 14:45:23 37° NNW 14:47:52 18° NE
Cosmos 1862 3.6 14:42:19 10° N 14:45:42 35° ENE 14:49:03 10° SE
PSLV R/B 4.1 14:43:18 10° SE 14:46:53 31° ENE 14:50:28 10° N
COSMOS 2406 3.3 14:41:37 10° NNW 14:47:14 55° NE 14:52:49 10° SE
SAR-Lupe-4 3.8 14:43:42 10° S 14:47:16 74° WSW 14:50:53 10° NNW
Cosmos 2016 Rocket 4.4 14:43:07 10° SSW 14:49:26 71° WNW 14:55:50 10° N
Cosmos 407 Rocket 3.6 14:47:36 10° S 14:52:36 51° ESE 14:56:54 14° NE
Okean 1 Rocket 4.4 14:51:33 10° SE 14:54:12 20° E 14:54:12 20° E
IRS-P3 4.1 14:49:31 10° SSE 14:54:51 84° ENE 15:00:14 10° NNW
SL-19 R/B 4.3 14:50:06 10° SE 14:55:03 47° ENE 15:00:05 10° N
Geosat FO 3.9 14:52:51 10° SE 14:55:43 85° NE 14:58:38 10° NNW
ISS -2.1 14:54:12 10° SSW 14:56:53 23° SSE 14:58:02 19° SE
CZ-2D R/B 3.1 14:54:48 10° S 14:57:56 65° WSW 15:01:05 10° NNW
TIMED 4.4 14:56:12 10° SSW 15:00:28 84° ESE 15:04:00 15° NNE
Cosmos 1812 2.3 14:59:52 10° SSE 15:02:37 40° E 15:02:46 40° E
Cosmos 540 Rocket 4.1 14:58:39 10° NNW 15:03:43 60° WSW 15:08:44 10° S
SMAP 4.0 15:00:19 10° S 15:04:52 52° W 15:09:27 10° NNW
SL-16 R/B 3.0 14:59:20 10° NNE 15:05:33 64° WNW 15:11:42 10° SW
Cosmos 2084 Rocket 3.4 15:01:45 10° WSW 15:05:57 75° NNW 15:08:16 26° NE
Cosmos 44 Rocket 3.8 15:02:36 10° S 15:07:03 39° ESE 15:09:01 27° ENE
Cosmos 2297 Rocket 3.9 15:03:36 10° NW 15:07:22 18° N 15:09:36 14° NE
SPOT 1/Viking Rocket 3.5 15:02:16 10° SSE 15:07:24 68° ENE 15:12:36 10° NNW
Meteor 2-3 Rocket 4.0 15:04:47 10° N 15:10:17 45° ENE 15:15:41 10° SE
SJ 16-02 2.1 15:07:34 10° SSE 15:11:16 29° ESE 15:11:19 29° ESE
Nadezhda 4 Rocket 3.9 15:06:01 10° N 15:12:19 67° ENE 15:18:31 10° SSE
YAOGAN 1 2.6 15:08:39 10° SE 15:12:48 54° ENE 15:16:59 10° N
Cosmos 1869 2.9 15:11:52 10° SSW 15:15:24 86° W 15:18:26 13° N
Aureole 3 Rocket 2.2 15:13:09 10° S 15:16:09 62° E 15:17:32 31° NNE
Cosmos 1892 Rocket 4.3 15:13:34 10° N 15:17:11 31° ENE 15:17:11 31° ENE
CZ-4C R/B 2.9 15:13:15 10° W 15:18:08 46° NNW 15:21:56 22° NE
Spot 4 Rocket 3.9 15:13:29 10° SSE 15:18:33 72° ENE 15:23:39 10° NNW
Cosmos 1140 Rocket 3.9 15:16:47 10° SW 15:21:55 62° WNW 15:26:38 12° NNE
RESURS DK-1 4.5 15:19:03 10° NW 15:22:29 28° WSW 15:25:55 10° S
Cosmos 44 4.5 15:19:28 10° NW 15:23:49 30° N 15:25:21 25° NE
UNK 4.3 15:21:05 10° N 15:25:39 59° WNW 15:30:11 10° SSW
Resurs 1-3 3.4 15:22:41 10° SSE 15:26:58 68° ENE 15:31:16 10° N
BREEZE M DEB (TANK) 4.2 15:12:39 10° W 15:28:06 54° SSW 15:30:55 25° SE
SL-12 R/B(2) 4.4 15:20:30 10° SSW 15:28:38 70° SE 15:35:53 21° NE
Cosmos 1428 Rocket 4.4 15:24:55 10° N 15:31:13 75° ENE 15:37:31 10° SSE
Cosmos 304 Rocket 4.3 15:28:09 10° S 15:32:08 36° ESE 15:32:08 36° ESE
Cosmos 1536 Rocket 3.6 15:29:09 10° NNW 15:33:37 82° WSW 15:38:01 10° S
Cosmos 371 Rocket 3.9 15:29:32 10° S 15:33:34 36° ESE 15:33:34 36° ESE
Cosmos 1400 Rocket 3.1 15:33:34 10° S 15:36:28 43° SE 15:36:28 43° SE
Okean 2 Rocket 3.0 15:37:41 10° S 15:42:00 60° E 15:42:45 51° NE
CARTOSAT-1 3.5 15:45:24 57° NE 15:45:24 57° NE 15:49:21 10° N
NOAA 6 3.9 15:41:34 10° SSE 15:46:43 80° ENE 15:51:52 10° NNW
Geosat 3.9 15:45:18 27° SE 15:48:05 86° NE 15:53:08 10° NNW
Timation 2 Rocket 4.2 15:41:54 10° SW 15:48:48 88° NW 15:53:25 23° NE
COSMO-SKYMED 1 2.8 15:50:28 47° SSE 15:50:28 47° SSE 15:53:37 10° S
BREEZE-M DEB (TANK) 3.8 15:46:45 10° SW 15:49:40 48° SSE 15:50:40 42° ESE
Cosmos 1943 Rocket 2.1 15:45:12 10° SW 15:50:49 84° NW 15:53:47 29° NNE
ATLAS 2AS CENTAUR R/B 2.6 15:45:08 10° NW 15:51:59 77° NE 15:54:48 38° ESE
Resurs 01 Rocket 1.9 15:52:46 49° NNE 15:52:46 49° NNE 15:56:23 10° N
Cosmos 841 Rocket 3.7 15:47:27 10° NNW 15:52:42 70° WSW 15:57:55 10° SSE
ATLAS CENTAUR R/B 2.9 15:52:31 10° WNW 15:55:09 21° NNW 15:55:09 21° NNW
Cosmos 2251 Rocket 3.4 15:50:32 10° SSW 15:55:50 86° ESE 15:58:11 35° NNE
Cosmos 2082 Rocket 3.5 15:50:44 10° NW 15:55:56 40° WSW 16:01:07 10° S
Cosmos 2227 Rocket 3.9 15:52:14 10° NNW 15:55:59 18° N 15:56:55 17° NNE
Cosmos 2058 4.4 15:53:24 10° NNW 15:57:03 35° W 16:00:41 10° SSW
Cosmos 2278 Rocket 2.3 15:58:21 10° SW 16:04:01 75° NW 16:06:42 32° NNE
Cosmos 1346 Rocket 3.2 16:01:14 10° NNW 16:04:11 51° NW 16:04:11 51° NW
Cosmos 1833 4.3 16:01:13 10° NNW 16:06:52 56° NE 16:07:08 55° ENE
Cosmos 1464 Rocket 4.0 16:01:04 10° SSW 16:07:22 79° WNW 16:13:37 10° N
Meteor 2-1 Rocket 4.2 16:05:27 10° S 16:11:19 70° E 16:15:01 24° NNE
Cosmos 2034 Rocket 3.9 16:14:59 10° S 16:21:13 88° WNW 16:27:34 10° NNE
Cosmos 2344 4.0 16:13:36 10° NW 16:21:15 70° SW 16:28:28 21° SSE
Cosmos 2263 Rocket 4.0 16:18:29 10° NNW 16:22:10 17° N 16:22:33 17° NNE
Cosmos 1814 Rocket 4.2 16:17:59 10° NNW 16:22:35 61° NNE 16:22:35 61° NNE
Cosmos 1190 Rocket 4.2 16:18:38 10° SW 16:23:55 72° WNW 16:25:14 50° N
ARIANE 6 FM1 Upper Stage 4.2 16:21:31 10° WNW 16:23:54 27° NNW 16:23:54 27° NNW
Cosmos 2151 Rocket 4.5 16:21:01 10° SSW 16:25:23 49° WNW 16:27:46 25° N
USA 281 3.1 16:24:36 50° SE 16:26:34 85° ENE 16:33:12 10° NNW
Cosmos 676 Rocket 4.0 16:21:38 10° SSW 16:26:27 73° S 16:26:27 73° S
SKYMED 2 4.4 16:26:38 34° NNW 16:28:07 48° WNW 16:32:17 10° SW
Cosmos 1656 Rocket 4.4 16:23:02 10° SSW 16:26:36 39° S 16:26:36 39° S
Cosmos 1092 Rocket 4.1 16:23:57 10° NNW 16:30:14 75° W 16:36:24 10° S
COSMOS 2406 4.5 16:26:09 10° NW 16:31:24 39° WSW 16:36:37 10° S
Okean 1 Rocket 3.8 16:27:51 10° SSW 16:31:18 48° WSW 16:31:18 48° WSW
ISS -1.0 16:30:00 10° WSW 16:30:57 17° WSW 16:30:57 17° WSW
CSL-04 Rocket 4.4 16:36:42 43° N 16:36:42 43° N 16:40:29 10° NNW
Cosmos 2026 Rocket 4.3 16:29:18 10° NNW 16:35:19 63° W 16:41:21 10° S
Cosmos 1954 Rocket 4.2 16:31:07 10° SW 16:36:23 70° WNW 16:36:42 68° NNW
Sich 1 Rocket 4.3 16:33:13 10° SSW 16:37:31 54° W 16:37:31 54° W
Terra 4.4 16:42:58 10° N 16:42:58 10° N 16:42:58 10° N
SPOT 5 4.5 16:46:43 28° N 16:46:43 28° N 16:49:05 10° N
Cosmos 44 Rocket 4.0 16:43:34 10° WSW 16:47:38 52° WNW 16:47:38 52° WNW
SJ 16-02 2.8 16:45:04 10° SW 16:47:53 34° WSW 16:47:53 34° WSW
Cosmos 2297 Rocket 3.7 16:48:13 10° NNW 16:51:23 25° N 16:51:23 25° N
CZ-4C R/B 3.3 17:02:07 10° WNW 17:06:53 42° N 17:06:53 42° N
BREEZE-M DEB (TANK) 4.5 16:55:30 10° W 17:19:08 62° S 17:19:36 61° S
Resurs 01 Rocket 4.0 17:30:11 20° WNW 17:30:11 20° WNW 17:32:21 10° NW
Cosmos 1943 Rocket 3.8 17:30:33 10° W 17:35:17 28° NNW 17:35:17 28° NNW
Cosmos 2227 Rocket 4.3 17:36:48 10° NNW 17:38:42 19° NNW 17:38:42 19° NNW
ATLAS 2AS CENTAUR R/B 3.7 17:36:21 10° WNW 17:42:14 38° WSW 17:42:14 38° WSW
Cosmos 2278 Rocket 4.0 17:44:17 10° W 17:48:33 26° NW 17:48:33 26° NW
